Regional Weather Roundup
Issued by NWS Wakefield, VA

Home | Current Version | Previous Version | Graphics & Text | Print | Product List | Glossary On
Versions: 1 2 3 4 5 6 7 8 9 10 11 12 13 14 15 16 17 18 19 20 21 22 23 24 25 26 27
000
ASUS41 KAKQ 160210
RWRAKQ

REGIONAL WEATHER ROUNDUP
NATIONAL WEATHER SERVICE WAKEFIELD VA
1000 PM EDT TUE APR 15 2014

Note: "fair" indicates few or no clouds below 12,000 feet with no
significant weather and/or obstructions to visibility. * = Denotes
station may not report precipitation (e.g., rain,snow,etc.),
thunder or fog.

VAZ042-051-052>054-056-160300-
NORTHERN VIRGINIA

CITY           SKY/WX    TMP DP  RH WIND       PRES   REMARKS
WASH NATIONAL  CLOUDY    39  34  82 N13       29.98R
DULLES         CLOUDY    37  26  64 N23G41    29.97R
FORT BELVOIR   CLOUDY    37  35  92 N5        30.00R
QUANTICO       CLOUDY    39  34  82 NE9       30.00R
FREDERICKSBRG* CLOUDY    39  37  93 N7        29.99R
STAFFORD*      CLOUDY    38  38 100 N5        30.01R
WARRENTON      CLOUDY    40  33  73 NW20G28   29.98R
CULPEPER*      CLOUDY    43  28  56 N14G26    29.99R
MANASSAS*      CLOUDY    39  36  87 N10G18    29.99R
LEESBURG*      CLOUDY    37  30  75 N21G36    30.00R
WINCHESTER     CLOUDY    36  25  64 NW21G35   30.01R WCI  24
$$

VAZ048-049-060>072-079>083-160300-
CENTRAL AND SOUTH CENTRAL VIRGINIA...AND NORTH CENTRAL NORTH CAROLINA

CITY           SKY/WX    TMP DP  RH WIND       PRES   REMARKS
RICHMOND       RAIN      41  37  86 N16G28    29.96R FOG
CHESTERFIELD*  CLOUDY    41  30  65 N8G22     29.96R
HANOVER        RAIN      38  36  92 N9G18     29.97R FOG
TAPPAHANNOCK*  RAIN      39  34  84 NW13G21   29.98R
CHARLOTTSVILLE CLOUDY    41  27  57 N13G23    29.96R
ORANGE*        CLOUDY    39  34  81 N6        29.99R
LOUISA*        CLOUDY    39  37  93 NE7       29.95R
FARMVILLE*     MOCLDY    43  41  93 CALM      29.94R
SOUTH HILL*    LGT RAIN  45  45 100 N18G25    29.97R
ROANOKE RAPIDS RAIN      46  45  93 N22       29.86R
RALEIGH        CLOUDY    43  36  76 VRB7      29.93R
$$

VAZ088>098-160300-
SOUTHEAST VIRGINIA

CITY           SKY/WX    TMP DP  RH WIND       PRES   REMARKS
NORFOLK        LGT RAIN  45  42  89 N26G40    29.85R
VIRGINIA BEACH LGT RAIN  46  42  86 N30G41    29.83R FOG
NORFOLK NAVAL  LGT RAIN  45  40  82 N24G41    29.89R
WEST POINT*    CLOUDY    42  39  89 N17G32    29.96R
NEWPORT NEWS   RAIN      45  39  79 N20G28    29.89R
LANGLEY AFB    LGT RAIN  43  43  99 NW26G32   29.89R FOG
FORT EUSTIS    LGT RAIN  42  40  91 N17G29    29.88R
WILLIAMSBURG*    N/A     43  41  93 N14G32    29.93R
FRANKLIN*      CLOUDY    45 N/A N/A N16G33    29.89R
WAKEFIELD      LGT RAIN  43  39  86 N14G25    29.90R
$$

VAZ020-022-025-037-045-160300-
WESTERN AND SOUTHWEST VIRGINIA

CITY           SKY/WX    TMP DP  RH WIND       PRES   REMARKS
STAUNTON*      CLOUDY    36  21  55 N16G24    30.00R
HOT SPRINGS VA CLOUDY    21  18  86 NW30G39   29.90R WCI   3
LYNCHBURG      MOCLDY    43  24  47 N9G21     29.96R
DANVILLE       PTCLDY    42  30  62 NW9       29.97R
MARTINSVILLE   PTCLDY    38  26  61 NW15      30.02R
ROANOKE        PTCLDY    35  19  52 NW15G22   30.02R
BLACKSBURG     CLOUDY    30  23  74 NW16G30   30.03R WCI  19
DUBLIN*        CLOUDY    32  20  63 NW21G35   30.04R WCI  19
MARION*        CLOUDY    30  19  63 NW14G23   30.07R WCI  20
HILLSVILLE*    CLOUDY    30  19  64 NW23G31   30.00R WCI  17
RICHLANDS*     CLOUDY    32  23  70 NW6       30.08R
WISE*          CLOUDY    32  21  64 NW8G18    30.12R
ABINGDON*      CLOUDY    34  20  57 N9G21     30.11R
$$

MDZ021>025-VAZ099-100-160300-
SOUTHERN MARYLAND AND THE DELMARVA PENINSULA

CITY           SKY/WX    TMP DP  RH WIND       PRES   REMARKS
PATUXENT RIVER RAIN      38  34  85 N24G30    29.94R FOG
BAY BRIDGE APT LGT RAIN  37  36  93 NW18G31   29.97R
LEONARDTOWN    CLOUDY    37  34  87 NW13G20   29.96R
DOVER          HVY RAIN  41  41 100 NW21G28   29.89R
GEORGETOWN     RAIN      44  40  85 N17G25    29.88R
EASTON         NOT AVBL
CAMBRIDGE      CLOUDY    43  37  81 NW26G36   29.91R
SALISBURY      HVY RAIN  43  39  86 NW20      29.88R FOG
OCEAN CITY     LGT RAIN  44  41  89 NW20G30   29.84R
WALLOPS ISLAND LGT RAIN  44  40  85 N15G25    29.87R
ACCOMACK*      LGT RAIN  48  43  81 N21G30    29.87R
$$

NCZ012>017-030>032-160300-
EASTERN NORTH CAROLINA

CITY           SKY/WX    TMP DP  RH WIND       PRES   REMARKS
ELIZABETH CITY LGT RAIN  46  45  93 N29G46    29.81R FOG
AHOSKIE*       CLOUDY    44  41  89 N24G35    29.88R
EDENTON*       LGT RAIN  49  48  99 N17G24    29.79R
CURRITUCK*     HVY RAIN  47  44  89 N21G29    29.81R
KILL DEVIL HLS LGT RAIN  64  62  90 N14G29    29.75R
MANTEO         CLOUDY    67  65  92 SW12      29.71R
CAPE HATTERAS  CLOUDY    68  65  90 SW13      29.72S
GOLDSBORO      RAIN      48  48 100 NW12G17   29.85R
WASHINGTON     CLOUDY    55  50  85 N18G26    29.79R
GREENVILLE     RAIN      52  52 100 N14G23    29.86R
NEW BERN       HVY RAIN  57  53  86 NW22G35   29.75R FOG
WILMINGTON     RAIN      54  51  90 NW26G38   29.80R FOG
$$

VAZ048-160300-
ELSEWHERE

CITY           SKY/WX    TMP DP  RH WIND       PRES   REMARKS
HARRISBURG PA  CLOUDY    39  27  62 NW20      29.96R
BALTIMORE      LGT RAIN  36  34  92 N7        29.96R
ANNAPOLIS      LGT RAIN  39  39 100 N16       29.98R FOG
ANDREWS AFB    CLOUDY    36  32  87 N9        29.99R
WILMINGTON DE  LGT RAIN  40  36  86 NW15      29.92R
PHILADELPHIA   LGT RAIN  40  34  79 NW15      29.92R
WILDWOOD NJ*   CLOUDY    45  39  81 NW18G25   29.85R
ATLANTIC CITY  RAIN      41  38  89 NW22G32   29.85R
HENDERSON NC   CLOUDY    42  39  89 NW9       29.93R
GREENSBORO     PTCLDY    40  29  64 N9        29.96R
ROCKY MOUNT    NOT AVBL
FAYETTEVILLE   CLOUDY    47  42  83 NW14      29.91R
CHARLOTTE      PTCLDY    43  30  60 N12G22    29.98R
$$

VAZ100-160300-
MARINE

STATION/POSITION TIME  TEMP    WIND        PRES    WAVE   SWELL
                       AIR SEA DIR/SP/G            HT/PER HT/PER
                 (UTC) (F)     (DEG/KT/KT) (MB)    (FT/S) (FT/S)
44066 TX TWR #4  0200   46 46  310/ 23/ 29 1005.8R  12/10  10/10
CAPE MAY NJ      0200   45 56  350/ 13/ 24 1009.8F
LEWES DE         0200   45 50  340/ 29/ 35 1009.8S
15NM E FENWICK I 0200   44 46              1009.0R   7/ 6
OCEAN-CITY-INLET 0200   44 47  350/ 21/ 26 1009.0R
WACHAPREAGUE VA  0200   44 63  350/ 11/ 19 1010.2R
THOMAS POINT MD  0200   37 52  340/ 24/ 26 1015.5R
GOOSES REEF MD   0200   40     350/ 27/ 31 1013.5R
COVE POINT MD    0200   40     350/ 33/ 39 1013.1R
SOLOMONS ISLAND  0200      54                N/A
BISHOPS HEAD MD  0200   42 56  340/ 17/ 27 1011.9R
PINEY POINT MD   0200          360/ 25/ 29   N/A
POTOMAC MD       0200   42     350/ 19/ 21 1012.3S
CAMBRIDGE MD     0200   43 57  340/ 26/ 32 1012.4R
LEWISETTA VA     0200   42 55  350/ 22/ 32 1013.1F
RAPPAHANNOCK LGT 0200          330/ 40/ 46 1010.9S
STINGRAY PT      0200   44     360/ 25/ 31 1011.5F
YORK RVR RNG VA  0200   45     360/ 30/ 36 1010.1F
YORKTOWN VA      0200   43 57  350/ 25/ 30 1011.7S
JAMESTOWN VA     0200           10/ 10/ 16   N/A
DOMINION TERM VA 0200   44      50/  5/ 12 1011.2R
KIPTOPEKE VA     0200      57  360/ 25/ 37   N/A
CHES BAY BRIDGE  0200      53  340/ 36/ 42 1010.6S
CAPE HENRY VA    0200          340/ 36/ 44   N/A
CHESAPEAKE LGHT  0100   46     350/ 38/ 45 1007.7R
WILLOUBY STN VA  0200   42     350/ 30/ 36 1009.6R
S CRANEY ISL VA  0200          340/ 30/ 39 1010.5F
CAPE HENRY BUOY  0200      47                N/A     8/ 6   2/11
1ST LANDING BUOY 0200      48                N/A     7/ 5   3/ 9
64NM E OF VA BCH 0200   59 54  240/ 14/ 21 1005.9R   9/ 9   7/ 9
DUCK PIER NC     0200      47  360/ 34/ 44 1005.5F
44100 DUCK FRF   0200      49                N/A     6/ 8
44056 DUCK FRF   0200      48                N/A     5/ 9
OREGON INLET NC  0200   68 70  190/ 13/ 17 1005.7F
HATTERAS NC      0200   68 66  180/  7/ 13 1006.3F
CAPE LOOKOUT NC  0100   66     180/ 15/ 16 1005.8R
FRYING PAN SHLS  0200   70 67  200/ 12/ 16 1005.2F   6/ 8   5/ 8
$$



USA.gov is the U.S. government's official web portal to all federal, state and local government web resources and services.